{"data":{"norad_id":66711,"intl_designator":"2025-276AX","name":"FLOCK 4H-8","alt_names":[],"object_type":"PAYLOAD","status":"ACTIVE","operator":null,"country":"US","launch_date":"2025-11-28","launch_site_code":"AFWTR","launch_vehicle":null,"mission":null,"orbit_class":"UNKNOWN","rcs_meters":null,"size_class":null,"mass_kg":null,"dimensions":null,"purposes":["earth_obs"],"wikipedia_slug":null,"has_3d_model":false,"image_url":null,"decayed_at":null,"tle_current":{"epoch":"2026-05-25T03:26:36.380832Z","epoch_age_seconds":59887,"freshness":"FRESH","line1":"1 66711U 25276AX  26145.14347663  .00006517  00000+0  30718-3 0  9995","line2":"2 66711  97.4230 219.1678 0005155  97.6837 262.4984 15.19820148 26921","mean_motion":15.19820148,"eccentricity":0.0005155,"inclination_deg":97.423,"raan_deg":219.1678,"arg_perigee_deg":97.6837,"mean_anomaly_deg":262.4984,"bstar":0.00030718,"rev_number":2692,"period_min":94.748053043971,"perigee_km":502.83472193686,"apogee_km":509.93266277067,"semimajor_km":6884.5206923538,"source":"CELESTRAK","updated_at":"2026-05-25T13:38:13.346918Z"}}}